This is the latest recevied weather packets stored in our database for station/object KA3BQE-13. If no packets are shown the sender has not sent any weather packets the latest 10 day(s).
| Time | Temp. | Humidity | Pressure | Rain* | Wind** | Luminosity | Snow |
|---|---|---|---|---|---|---|---|
| 1777494269 | 15° C | 51% | 1017 hPa | 0 mm | - | 204 W/m² | - |
| 1777493966 | 14.44° C | 49% | 1016.8 hPa | 0 mm | - | 772 W/m² | - |
| 1777493664 | 15.56° C | 49% | 1017.1 hPa | 0 mm | - | 227 W/m² | - |
| 1777493361 | 16.11° C | 53% | 1017 hPa | 0 mm | - | 789 W/m² | - |
| 1777493057 | 14.44° C | 54% | 1017 hPa | 0 mm | - | 891 W/m² | - |
| 1777492754 | 14.44° C | 54% | 1017.2 hPa | 0 mm | - | 236 W/m² | - |
| 1777492450 | 15° C | 54% | 1017.1 hPa | 0 mm | - | 255 W/m² | - |
| 1777492147 | 15.56° C | 53% | 1017.2 hPa | 0 mm | - | 352 W/m² | - |
| 1777491844 | 15° C | 53% | 1017.2 hPa | 0 mm | - | 964 W/m² | - |
| 1777491540 | 15° C | 54% | 1017.1 hPa | 0 mm | - | 298 W/m² | - |
| 1777491238 | 15.56° C | 56% | 1017.2 hPa | 0 mm | - | 1020 W/m² | - |
| 1777490933 | 15° C | 55% | 1017.2 hPa | 0 mm | - | 1014 W/m² | - |
| 1777490629 | 14.44° C | 56% | 1017.2 hPa | 0 mm | - | 404 W/m² | - |
| 1777490325 | 15° C | 59% | 1017.4 hPa | 0 mm | - | 291 W/m² | - |
| 1777490023 | 15° C | 57% | 1017.3 hPa | 0 mm | - | 927 W/m² | - |
| 1777489720 | 15° C | 57% | 1017.2 hPa | 0 mm | - | 844 W/m² | - |
| 1777489417 | 15.56° C | 61% | 1016.9 hPa | 0 mm | - | 913 W/m² | - |
| 1777489114 | 16.11° C | 55% | 1017.5 hPa | 0 mm | - | 281 W/m² | - |
| 1777488811 | 15.56° C | 57% | 1017.3 hPa | 0 mm | - | 916 W/m² | - |
| 1777488508 | 15.56° C | 60% | 1017.2 hPa | 0 mm | - | 937 W/m² | - |
| 1777488206 | 15.56° C | 63% | 1017.1 hPa | 0 mm | - | 233 W/m² | - |
| 1777487904 | 15.56° C | 55% | 1017.1 hPa | 0 mm | - | 990 W/m² | - |
| 1777487601 | 15° C | 57% | 1017 hPa | 0 mm | - | 932 W/m² | - |
| 1777487299 | 15.56° C | 59% | 1016.8 hPa | 0 mm | - | 935 W/m² | - |
| 1777486996 | 15° C | 61% | 1016.8 hPa | 0 mm | - | 912 W/m² | - |
* Rain latest hour (hover to see other rain measurements)
** Current wind speed in m/s (hover to see current wind gust speed)